Regional Weather Roundup
Issued by NWS

Home | Current Version | Previous Version | Graphics & Text | Print | Product List | Glossary On
Versions: 1 2 3 4 5 6 7 8 9 10 11 12 13 14 15 16 17 18 19 20 21 22 23 24 25 26 27 28 29 30 31 32 33 34 35 36 37 38 39 40 41 42 43 44 45 46 47 48 49 50
000
ASUS43 KDMX 291903
RWRIA

WEATHER ROUNDUP FOR IOWA
NATIONAL WEATHER SERVICE DES MOINES IA
200 PM CDT FRI APR 29 2016

NOTE: "FAIR" INDICATES FEW OR NO CLOUDS BELOW 12,000 FEET WITH NO
SIGNIFICANT WEATHER AND/OR OBSTRUCTIONS TO VISIBILITY.

* - THESE STATIONS ARE NOT NWS STATIONS...THUS NOT UNDER NWS
QUALITY CONTROL.  THEY ALSO DO NOT REPORT WEATHER SUCH
AS PRECIPITATION OR FOG.

IAZ001>003-012>014-020>022-031>034-043>046-292000-
   NORTHWEST IOWA

CITY           SKY/WX    TMP DP  RH WIND       PRES   REMARKS
CARROLL *      CLOUDY    48  43  81 NE13      30.08S
CHEROKEE *     CLOUDY    45  41  87 E9G17     30.12S
DENISON *      CLOUDY    46  43  87 E10       30.07S
LE MARS *      CLOUDY    45  39  81 E10G17    30.13R
ORANGE CITY *  CLOUDY    46  39  76 E9G16     30.11S
SHELDON *      CLOUDY    45  39  81 E15       30.11R
SIOUX CITY     CLOUDY    48  40  73 E8        30.11S
SPENCER        CLOUDY    46  38  73 E14       30.13S
STORM LAKE *     N/A     45  41  87 E16       30.11S
$$

IAZ055>058-069>071-079>083-090>094-292000-
   SOUTHWEST IOWA

CITY           SKY/WX    TMP DP  RH WIND       PRES   REMARKS
ATLANTIC *     CLOUDY    46  43  87 E6G13     30.09S
AUDUBON *      PTSUNNY   46  43  87 E8        30.10R
CLARINDA *       N/A    N/A N/A N/A MISG        N/A
COUNCIL BLFS * CLOUDY    46  41  81 E12       30.08R
CRESTON *      CLOUDY    50  43  76 E12       30.08F
HARLAN  *      CLOUDY    46  43  87 E12       30.12R
LAMONI         CLOUDY    51  45  79 NE14      30.05F
RED OAK *      CLOUDY    50  43  76 E9        30.06F
SHENANDOAH *   CLOUDY    50  45  81 E10       30.06F
$$

IAZ047>049-059>061-072>074-084-292000-
   CENTRAL IOWA

CITY           SKY/WX    TMP DP  RH WIND       PRES   REMARKS
AMES           CLOUDY    48  40  73 NE9       30.10F
ANKENY *       CLOUDY    48  43  81 E9        30.11R
BOONE *        CLOUDY    48  41  76 NE15      30.08F
CHARITON *     CLOUDY    50  45  81 NE9       30.09R
DES MOINES     CLOUDY    50  40  68 E9        30.10R
GRINNELL*      CLOUDY    48  41  76 NE9       30.11R
KNOXVILLE *    CLOUDY    50  41  71 E8        30.09R
MARSHALLTOWN   CLOUDY    48  40  73 E9        30.10F
NEWTON *       CLOUDY    48  41  76 NE12      30.10R
PELLA *        CLOUDY    50  42  74 NE5       30.11R
$$

IAZ004>006-015-016-023>025-035-036-292000-
   NORTH CENTRAL IOWA

CITY           SKY/WX    TMP DP  RH WIND       PRES   REMARKS
ALGONA *       CLOUDY    46  39  76 NE14      30.12F
CLARION *      CLOUDY    45  41  87 E13G20    30.11F
ESTHERVILLE    CLOUDY    48  41  76 E12       30.11F
FORT DODGE *   CLOUDY    46  37  71 E13       30.12R
MASON CITY     CLOUDY    46  39  76 E14       30.13F
FOREST CITY *  CLOUDY    45  37  76 E8G16     30.13S
WEBSTER CITY * CLOUDY    46  41  81 E10       30.10R
IOWA FALLS *   CLOUDY    46  39  76 E10       30.12S
$$

IAZ007>011-017>019-026>030-037>042-050>054-066-292000-
   NORTHEAST IOWA

CITY           SKY/WX    TMP DP  RH WIND       PRES   REMARKS
CEDAR RAPIDS   CLOUDY    49  43  80 NE7       30.09F
CHARLES CITY * CLOUDY    48  41  76 NE12      30.12F
CLINTON *      CLOUDY    48  41  76 E6        30.11F
DECORAH *      CLOUDY    48  37  66 E9        30.10F
DUBUQUE        CLOUDY    47  38  71 E8        30.11S
MONTICELLO *   CLOUDY    48  41  76 VRB7      30.11R
OELWEIN *      CLOUDY    46  39  76 E8        30.11F
WATERLOO       CLOUDY    48  38  68 NE10      30.11S
$$

IAZ064-065-067-068-078-292000-
   EAST CENTRAL IOWA

CITY           SKY/WX    TMP DP  RH WIND       PRES   REMARKS
DAVENPORT      PTSUNNY   51  42  71 NE7       30.09F
IOWA CITY      PTSUNNY   53  43  68 N10       30.10F
MT. PLEASANT * CLOUDY    52  45  76 NE5       30.10S
MUSCATINE *    CLOUDY    52  41  66 CALM      30.11R
QUAD CITIES    CLOUDY    51  40  65 NE9       30.09F
$$

IAZ062-063-075>077-085>089-095>099-292000-
   SOUTHEAST IOWA

CITY           SKY/WX    TMP DP  RH WIND       PRES   REMARKS
BURLINGTON     CLOUDY    50  44  80 NE7       30.09S
FAIRFIELD *    CLOUDY    50  41  71 VRB6      30.10R
FORT MADISON * CLOUDY    52  45  76 E6        30.10R
KEOKUK *       CLOUDY    52  45  76 NE5G13    30.07S
OSKALOOSA *    CLOUDY    50  41  71 SE5       30.10S
OTTUMWA        CLOUDY    49  42  77 E8        30.09S
WASHINGTON *   CLOUDY    50  45  81 NE7       30.10S
$$

ABBREVIATIONS USED IN REMARKS
   TC - TEMPERATURES IN CELSIUS
  WCI - WIND CHILL INDEX
   HX - HEAT INDEX
  VSB - VISIBILITY
$$





USA.gov is the U.S. government's official web portal to all federal, state and local government web resources and services.